Flag for Canada Weather past 2 weeks in Hopedale, Newfoundland and Labrador, Canada

Now
33 °F

Chilly.


Feels Like: 25 °F
Forecast: 10 / 25 °F
Wind: 10 mph from Northwest

Location: Hopedale


UV Index: 3 (Moderate)

Visibility: N/A


Pressure: 30.13 "Hg

Humidity: 69%

Dew point: 24 °F

Location of HopedaleLocation

Historic Weather in Hopedale

°F

Hopedale temperature yesterday

Maximum temperature yesterday: 17 °F (at 7:00 PM)
Minimum temperature yesterday: 5 °F (at 6:00 AM)
Average temperature yesterday: 11 °F

Past Weeks' High & Low Weather Summary

 TemperatureHumidityPressure
High41 °F (Apr 11, 12:00 PM)100% (Apr 7, 1:00 AM)30.44 "Hg (Apr 7, 1:00 AM)
Low0 °F (Apr 14, 5:00 AM)39% (Apr 18, 3:00 PM)28.88 "Hg (Apr 9, 3:00 PM)
Average22 °F76%29.82 "Hg
* Reported Apr 3 8:00 PM — Apr 18 8:00 PM, Hopedale, Weather by CustomWeather, © 2014

Note: Actual official high and low records may vary slightly from our data, if they occured in-between our weather recording intervals... More about our weather records

Advertising

Historic Weather Conditions — Data for Previous 24 hours

 ConditionsComfort  
Time TempWeatherWind HumidityBarometerVisibility
8:00 PM
Apr 18
34 °FChilly.16 mph72%30.12 "HgN/A
7:00 PM34 °FChilly.14 mph70%30.12 "HgN/A
6:00 PM35 °FChilly.22 mph62%30.13 "HgN/A
5:00 PM35 °FChilly.18 mph58%30.14 "HgN/A
4:00 PM35 °FChilly.17 mph45%30.15 "HgN/A
3:00 PM33 °FChilly.23 mph39%30.16 "HgN/A
2:00 PM32 °FChilly.26 mph45%30.18 "HgN/A
1:00 PM31 °FChilly.24 mph49%30.21 "HgN/A
12:00 PM29 °FChilly.23 mph48%30.23 "HgN/A
11:00 AM26 °FChilly.24 mph51%30.25 "HgN/A
10:00 AM24 °FCold.22 mph52%30.28 "HgN/A
9:00 AM21 °FCold.18 mph57%30.31 "HgN/A
8:00 AM17 °FCold.18 mph62%30.33 "HgN/A
7:00 AM14 °FCold.12 mph66%30.35 "HgN/A
6:00 AM14 °FCold.13 mph65%30.36 "HgN/A
5:00 AM16 °FCold.13 mph63%30.37 "HgN/A
4:00 AM13 °FCold.9 mph67%30.38 "HgN/A
3:00 AM18 °FCold.21 mph59%30.37 "HgN/A
2:00 AM17 °FCold.16 mph60%30.39 "HgN/A
1:00 AM13 °FCold.16 mph69%30.40 "HgN/A
12:00 AM17 °FCold.22 mph62%30.41 "HgN/A
11:00 PM
Apr 17
15 °FCold.7 mph65%30.43 "HgN/A
10:00 PM15 °FCold.16 mph66%30.44 "HgN/A
Weather by CustomWeather, © 2014

See weather overview